Retour au catalogue

ATLAS 5 CENTAUR DEB

LostHEO
NORAD 52044·DEBRIS·🇺🇸 United States

Lancé Oct 17, 2018 depuis Cape Canaveral Space Force Station

Loading…

Prochains Passages (prochaines 24 heures)

TLE

PériméSource: Space-Track

Époque: Aug 3, 2026, 22:45 UTC

1 52044U 18079GN  26215.94823708 -.00000088  00000-0  00000-0 0  9994
2 52044  13.0008  35.7187 4296189 325.7497  12.7148  1.90889642 34788

Suivez ATLAS 5 CENTAUR DEB en temps réel avec AllMySat

Download on the App Store